WB4FAY-4 Weather Reports


Display with metric or nautical units.
time (UTC)temp
F
wind
direction
speed
MPH
gust
MPH
rain 1hr
in
rain 24hr
in
rain mn
in
humidity
%
barometer
mb
20170817232117 86 200 1.0 4.0 0.00 0.00 0.00 60 1016.1
20170817231617 86 193 1.0 3.0 0.00 0.00 0.00 60 1016.0
20170817231117 86 186 2.0 3.0 0.00 0.00 0.00 60 1015.9
20170817230617 86 195 2.0 6.0 0.00 0.00 0.00 60 1016.0
20170817230117 86 205 3.0 3.0 0.00 0.00 0.00 61 1016.1
20170817225617 86 199 1.0 4.0 0.00 0.00 0.00 61 1016.1
20170817225117 86 209 1.0 3.0 0.00 0.00 0.00 60 1016.1
20170817224617 86 192 2.0 3.0 0.00 0.00 0.00 59 1016.1
20170817224117 87 189 1.0 6.0 0.00 0.00 0.00 59 1016.1
20170817223617 87 227 1.0 3.0 0.00 0.00 0.00 59 1016.1
20170817223117 87 306 1.0 4.0 0.00 0.00 0.00 59 1016.1
20170817222617 87 188 2.0 4.0 0.00 0.00 0.00 59 1016.1
20170817222117 87 230 3.0 3.0 0.00 0.00 0.00 59 1016.2
20170817221617 88 182 3.0 6.0 0.00 0.00 0.00 57 1016.2
20170817221117 88 193 1.0 6.0 0.00 0.00 0.00 58 1016.2
20170817220617 88 316 2.0 5.0 0.00 0.00 0.00 57 1016.3
20170817220117 88 198 4.0 8.0 0.00 0.00 0.00 58 1016.4
20170817215617 88 193 3.0 7.0 0.00 0.00 0.00 55 1016.3
20170817215117 88 256 1.0 3.0 0.00 0.00 0.00 57 1016.3
20170817214616 88 195 2.0 6.0 0.00 0.00 0.00 56 1016.3
20170817214117 88 223 2.0 4.0 0.00 0.00 0.00 57 1016.3
20170817213617 88 181 3.0 5.0 0.00 0.00 0.00 56 1016.2
20170817213117 88 186 2.0 6.0 0.00 0.00 0.00 57 1016.2
20170817212618 88 311 1.0 4.0 0.00 0.00 0.00 58 1016.2
20170817212126 88 171 2.0 5.0 0.00 0.00 0.00 57 1016.2
20170817211617 88 196 5.0 9.0 0.00 0.00 0.00 57 1016.2
20170817211116 88 193 1.0 6.0 0.00 0.00 0.00 55 1016.3
20170817210617 88 175 4.0 7.0 0.00 0.00 0.00 56 1016.3
20170817210117 88 200 1.0 6.0 0.00 0.00 0.00 57 1016.3
20170817205617 88 193 4.0 3.0 0.00 0.00 0.00 56 1016.4
20170817205116 89 185 1.0 3.0 0.00 0.00 0.00 56 1016.4
20170817204617 89 191 1.0 7.0 0.00 0.00 0.00 54 1016.4
20170817204117 89 198 1.0 5.0 0.00 0.00 0.00 55 1016.5
20170817203617 89 229 3.0 4.0 0.00 0.00 0.00 55 1016.6
20170817203117 89 198 1.0 5.0 0.00 0.00 0.00 55 1016.7
20170817202617 88 193 2.0 6.0 0.00 0.00 0.00 54 1016.8
20170817202119 88 199 0.0 4.0 0.00 0.00 0.00 58 1016.8
20170817201617 89 192 0.0 7.0 0.00 0.00 0.00 56 1016.9
20170817201117 88 198 4.0 6.0 0.00 0.00 0.00 56 1016.9
20170817200617 88 193 5.0 6.0 0.00 0.00 0.00 56 1017.0
20170817200117 88 318 3.0 8.0 0.00 0.00 0.00 56 1017.1
20170817195617 89 294 2.0 5.0 0.00 0.00 0.00 59 1017.2
20170817195117 89 160 4.0 4.0 0.00 0.00 0.00 57 1017.2
20170817194617 89 198 2.0 5.0 0.00 0.00 0.00 58 1017.1
20170817194117 89 191 3.0 6.0 0.00 0.00 0.00 57 1017.3
20170817193617 88 241 2.0 8.0 0.00 0.00 0.00 58 1017.4
20170817193117 88 185 2.0 8.0 0.00 0.00 0.00 57 1017.4
20170817192617 88 202 4.0 7.0 0.00 0.00 0.00 57 1017.6
20170817192118 88 195 5.0 10.0 0.00 0.00 0.00 58 1017.6
20170817191617 88 287 1.0 6.0 0.00 0.00 0.00 57 1017.7
20170817191117 87 178 4.0 3.0 0.00 0.00 0.00 60 1017.6
20170817190617 87 295 2.0 8.0 0.00 0.00 0.00 59 1017.8
20170817190117 88 192 1.0 9.0 0.00 0.00 0.00 58 1017.8
20170817185617 87 254 5.0 5.0 0.00 0.00 0.00 58 1017.9
20170817185118 87 274 3.0 4.0 0.00 0.00 0.00 59 1018.0
20170817184617 87 274 2.0 5.0 0.00 0.00 0.00 60 1018.0
20170817184117 87 216 2.0 3.0 0.00 0.00 0.00 60 1018.1
20170817183617 87 200 1.0 6.0 0.00 0.00 0.00 58 1018.1
20170817183117 87 192 3.0 5.0 0.00 0.00 0.00 61 1018.2
20170817182617 87 213 2.0 3.0 0.00 0.00 0.00 62 1018.3
20170817182117 86 323 1.0 5.0 0.00 0.00 0.00 62 1018.2
20170817181617 86 282 2.0 9.0 0.00 0.00 0.00 62 1018.3
20170817181117 86 253 1.0 3.0 0.00 0.00 0.00 62 1018.4
20170817180617 86 277 1.0 6.0 0.00 0.00 0.00 63 1018.5
20170817180117 87 294 1.0 7.0 0.00 0.00 0.00 62 1018.6
20170817175618 87 313 6.0 5.0 0.00 0.00 0.00 63 1018.6
20170817175120 86 323 2.0 4.0 0.00 0.00 0.00 65 1018.6
20170817174617 86 196 0.0 5.0 0.00 0.00 0.00 63 1018.6
20170817174117 86 251 3.0 5.0 0.00 0.00 0.00 64 1018.8
20170817173617 86 181 3.0 3.0 0.00 0.00 0.00 66 1018.9
20170817173117 86 319 1.0 5.0 0.00 0.00 0.00 65 1018.8
20170817172617 86 292 2.0 7.0 0.00 0.00 0.00 65 1018.9
20170817172117 85 288 1.0 7.0 0.00 0.00 0.00 66 1018.9
20170817171617 85 313 1.0 6.0 0.00 0.00 0.00 66 1019.0
20170817171117 85 258 2.0 8.0 0.00 0.00 0.00 67 1019.0
20170817170616 85 196 1.0 6.0 0.00 0.00 0.00 68 1019.0
20170817170117 85 295 1.0 2.0 0.00 0.00 0.00 69 1019.0
20170817165617 84 287 1.0 5.0 0.00 0.00 0.00 68 1019.0
20170817165117 84 188 1.0 7.0 0.00 0.00 0.00 67 1019.1
20170817164617 84 268 3.0 5.0 0.00 0.00 0.00 67 1019.1
20170817164117 84 295 0.0 6.0 0.00 0.00 0.00 67 1019.4
20170817163617 85 342 1.0 7.0 0.00 0.00 0.00 69 1019.4
20170817163117 85 254 4.0 4.0 0.00 0.00 0.00 67 1019.5
20170817162617 85 199 2.0 4.0 0.00 0.00 0.00 67 1019.5
20170817162117 84 169 2.0 5.0 0.00 0.00 0.00 69 1019.5
20170817161617 84 304 3.0 5.0 0.00 0.00 0.00 71 1019.6
20170817161117 83 250 3.0 4.0 0.00 0.00 0.00 70 1019.6
20170817160617 83 322 2.0 5.0 0.00 0.00 0.00 72 1019.7
20170817160117 83 175 3.0 7.0 0.00 0.00 0.00 72 1019.7
20170817155617 83 196 1.0 6.0 0.00 0.00 0.00 71 1019.7
20170817155117 83 271 1.0 2.0 0.00 0.00 0.00 72 1019.7
20170817154617 83 4 0.0 7.0 0.00 0.00 0.00 71 1019.7
20170817154117 83 234 1.0 7.0 0.00 0.00 0.00 71 1019.7
20170817153617 83 340 3.0 5.0 0.00 0.00 0.00 72 1019.6
20170817153117 83 335 5.0 11.0 0.00 0.00 0.00 73 1019.7
20170817152617 83 184 2.0 7.0 0.00 0.00 0.00 75 1019.6
20170817152117 82 191 3.0 5.0 0.00 0.00 0.00 74 1019.5
20170817151617 82 332 1.0 6.0 0.00 0.00 0.00 74 1019.6
20170817151117 82 28 3.0 10.0 0.00 0.00 0.00 74 1019.6
20170817150617 82 270 8.0 5.0 0.00 0.00 0.00 75 1019.5
20170817150117 82 195 2.0 7.0 0.00 0.00 0.00 75 1019.6
20170817145617 82 193 7.0 7.0 0.00 0.00 0.00 76 1019.6
20170817145118 81 319 3.0 6.0 0.00 0.00 0.00 75 1019.6
20170817144617 81 195 2.0 6.0 0.00 0.00 0.00 76 1019.6
20170817144117 81 282 3.0 11.0 0.00 0.00 0.00 75 1019.5
20170817143617 81 176 1.0 3.0 0.00 0.00 0.00 77 1019.5
20170817143117 81 234 1.0 8.0 0.00 0.00 0.00 77 1019.5
20170817142617 80 299 3.0 6.0 0.00 0.00 0.00 77 1019.5
20170817142117 80 202 1.0 4.0 0.00 0.00 0.00 77 1019.5
20170817141617 80 184 1.0 6.0 0.00 0.00 0.00 77 1019.6
20170817141117 79 302 3.0 5.0 0.00 0.00 0.00 78 1019.5
20170817140617 79 254 3.0 7.0 0.00 0.00 0.00 79 1019.6
20170817140117 79 301 3.0 6.0 0.00 0.00 0.00 78 1019.5
20170817135617 79 158 3.0 3.0 0.00 0.00 0.00 80 1019.5
20170817135116 79 360 2.0 5.0 0.00 0.00 0.00 80 1019.5
20170817134617 78 199 1.0 5.0 0.00 0.00 0.00 81 1019.5
20170817134117 78 265 1.0 6.0 0.00 0.00 0.00 82 1019.5
20170817133617 77 184 3.0 3.0 0.00 0.00 0.00 83 1019.5
20170817133117 77 145 0.0 3.0 0.00 0.00 0.00 84 1019.4
20170817132617 77 193 1.0 3.0 0.00 0.00 0.00 85 1019.3
20170817132116 76 196 2.0 4.0 0.00 0.00 0.00 87 1019.4
20170817131617 76 193 1.0 2.0 0.00 0.00 0.00 88 1019.4
20170817131117 76 212 0.0 1.0 0.00 0.00 0.00 89 1019.5
20170817130617 75 198 0.0 3.0 0.00 0.00 0.00 90 1019.5
20170817130117 75 188 1.0 4.0 0.00 0.00 0.00 90 1019.5
20170817125617 75 151 0.0 1.0 0.00 0.00 0.00 91 1019.5
20170817125117 75 0 0.0 0.0 0.00 0.00 0.00 91 1019.5
20170817124617 74 0 0.0 0.0 0.00 0.00 0.00 92 1019.5
20170817124117 74 0 0.0 0.0 0.00 0.00 0.00 92 1019.5
20170817123617 74 195 0.0 1.0 0.00 0.00 0.00 92 1019.4
20170817123117 74 0 0.0 0.0 0.00 0.00 0.00 92 1019.4
20170817122617 74 0 0.0 0.0 0.00 0.00 0.00 92 1019.4
20170817122118 74 0 0.0 0.0 0.00 0.00 0.00 92 1019.4
20170817121619 74 0 0.0 0.0 0.00 0.00 0.00 92 1019.3
20170817121120 73 0 0.0 0.0 0.00 0.00 0.00 92 1019.3
20170817120618 73 0 0.0 0.0 0.00 0.00 0.00 92 1019.1
20170817120118 73 0 0.0 0.0 0.00 0.00 0.00 92 1019.1
20170817115619 73 0 0.0 0.0 0.00 0.00 0.00 92 1019.1
20170817115119 73 0 0.0 0.0 0.00 0.00 0.00 92 1019.1
20170817114618 73 0 0.0 0.0 0.00 0.00 0.00 92 1019.0
20170817114119 73 0 0.0 0.0 0.00 0.00 0.00 91 1018.9
20170817113620 73 0 0.0 0.0 0.00 0.00 0.00 91 1018.9
20170817113125 73 0 0.0 0.0 0.00 0.00 0.00 91 1018.9
20170817112618 73 0 0.0 0.0 0.00 0.00 0.00 91 1018.8
20170817112119 73 0 0.0 0.0 0.00 0.00 0.00 91 1018.7
20170817111617 73 0 0.0 0.0 0.00 0.00 0.00 91 1018.7
20170817111117 73 0 0.0 0.0 0.00 0.00 0.00 91 1018.7
20170817110618 73 0 0.0 0.0 0.00 0.00 0.00 90 1018.7
20170817110116 73 0 0.0 0.0 0.00 0.00 0.00 90 1018.6
20170817105618 74 0 0.0 0.0 0.00 0.00 0.00 90 1018.4
20170817105117 74 0 0.0 0.0 0.00 0.00 0.00 90 1018.3
20170817104619 74 0 0.0 0.0 0.00 0.00 0.00 90 1018.2
20170817104118 74 0 0.0 0.0 0.00 0.00 0.00 90 1018.3
20170817103618 74 0 0.0 0.0 0.00 0.00 0.00 90 1018.2
20170817103117 74 0 0.0 0.0 0.00 0.00 0.00 89 1018.2
20170817102617 74 0 0.0 0.0 0.00 0.00 0.00 89 1018.1
20170817102117 74 0 0.0 0.0 0.00 0.00 0.00 89 1018.1
20170817101617 74 0 0.0 0.0 0.00 0.00 0.00 89 1018.0
20170817101117 74 0 0.0 0.0 0.00 0.00 0.00 89 1018.0
20170817100617 74 0 0.0 0.0 0.00 0.00 0.00 89 1018.0
20170817100117 75 0 0.0 0.0 0.00 0.00 0.00 89 1017.9
20170817095617 75 0 0.0 0.0 0.00 0.00 0.00 88 1017.8
20170817095116 75 0 0.0 0.0 0.00 0.00 0.00 88 1017.7
20170817094617 75 0 0.0 0.0 0.00 0.00 0.00 88 1017.8
20170817094117 75 0 0.0 0.0 0.00 0.00 0.00 88 1017.7
20170817093617 75 0 0.0 0.0 0.00 0.00 0.00 88 1017.7
20170817093117 75 0 0.0 0.0 0.00 0.00 0.00 88 1017.6
20170817092618 75 0 0.0 0.0 0.00 0.00 0.00 88 1017.6
20170817092118 75 0 0.0 0.0 0.00 0.00 0.00 88 1017.6
20170817091618 75 0 0.0 0.0 0.00 0.00 0.00 88 1017.5
20170817091118 75 0 0.0 0.0 0.00 0.00 0.00 89 1017.5
20170817090618 75 253 0.0 1.0 0.00 0.00 0.00 89 1017.5
20170817090117 75 181 0.0 2.0 0.00 0.00 0.00 89 1017.5
20170817085622 75 224 1.0 3.0 0.00 0.00 0.00 90 1017.4
20170817085117 75 106 0.0 0.0 0.00 0.00 0.00 90 1017.5
20170817084617 75 0 0.0 0.0 0.00 0.00 0.00 90 1017.5
20170817084117 75 209 0.0 1.0 0.00 0.00 0.00 90 1017.5
20170817083617 75 0 0.0 0.0 0.00 0.00 0.00 91 1017.5
20170817083117 75 0 0.0 0.0 0.00 0.00 0.00 91 1017.6
20170817082617 75 0 0.0 0.0 0.00 0.00 0.00 91 1017.6
20170817082117 75 0 0.0 0.0 0.00 0.00 0.00 91 1017.6
20170817081622 76 299 0.0 2.0 0.00 0.00 0.00 91 1017.7
20170817081117 76 0 2.0 0.0 0.00 0.00 0.00 91 1017.7
20170817080617 76 0 0.0 0.0 0.00 0.00 0.00 91 1017.7
20170817080117 76 0 0.0 0.0 0.00 0.00 0.00 91 1017.6
20170817075617 76 0 0.0 0.0 0.00 0.00 0.00 91 1017.6
20170817075117 76 0 0.0 0.0 0.00 0.00 0.00 91 1017.7
20170817074617 76 0 0.0 0.0 0.00 0.00 0.00 91 1017.7
20170817074117 76 179 0.0 1.0 0.00 0.00 0.00 91 1017.6
20170817073618 76 0 0.0 0.0 0.00 0.00 0.00 91 1017.6
20170817073118 76 0 0.0 0.0 0.00 0.00 0.00 91 1017.6
20170817072617 76 0 0.0 0.0 0.00 0.00 0.00 91 1017.6
20170817072118 76 0 0.0 0.0 0.00 0.00 0.00 91 1017.6
20170817071618 76 0 0.0 0.0 0.00 0.00 0.00 91 1017.6
20170817071118 76 0 0.0 0.0 0.00 0.00 0.00 91 1017.6
20170817070619 76 186 0.0 1.0 0.00 0.00 0.00 91 1017.5
20170817070119 76 0 0.0 0.0 0.00 0.00 0.00 91 1017.5
20170817065618 76 0 0.0 0.0 0.00 0.00 0.00 91 1017.5
20170817065124 76 0 0.0 0.0 0.00 0.00 0.00 90 1017.5
20170817064618 76 0 0.0 0.0 0.00 0.00 0.00 90 1017.5
20170817064120 76 0 0.0 0.0 0.00 0.00 0.00 90 1017.5
20170817063618 76 0 0.0 0.0 0.00 0.00 0.00 90 1017.5
20170817063118 76 0 0.0 0.0 0.00 0.00 0.00 90 1017.6
20170817062618 76 0 0.0 0.0 0.00 0.00 0.00 90 1017.7
20170817062118 76 0 0.0 0.0 0.00 0.00 0.00 90 1017.8
20170817061618 76 0 0.0 0.0 0.00 0.00 0.00 90 1017.8
20170817061117 76 0 0.0 0.0 0.00 0.00 0.00 90 1017.8
20170817060618 76 0 0.0 0.0 0.00 0.00 0.00 90 1017.8
20170817060123 76 0 0.0 0.0 0.00 0.00 0.00 90 1017.8
20170817055618 76 0 0.0 0.0 0.00 0.00 0.00 89 1017.8
20170817055118 76 0 0.0 0.0 0.00 0.00 0.00 89 1017.9
20170817054618 76 0 0.0 0.0 0.00 0.00 0.00 89 1017.9
20170817054118 76 0 0.0 0.0 0.00 0.00 0.00 89 1017.9
20170817053618 77 0 0.0 0.0 0.00 0.00 0.00 88 1017.9
20170817053119 77 0 0.0 0.0 0.00 0.00 0.00 88 1017.8
20170817052617 77 0 0.0 0.0 0.00 0.00 0.00 88 1017.8
20170817052118 77 0 0.0 0.0 0.00 0.00 0.00 88 1017.7
20170817051617 77 0 0.0 0.0 0.00 0.00 0.00 88 1017.7
20170817051118 77 0 0.0 0.0 0.00 0.00 0.00 87 1017.8
20170817050617 77 0 0.0 0.0 0.00 0.00 0.00 87 1017.7
20170817050118 77 0 0.0 0.0 0.00 0.00 0.00 87 1017.7
20170817045618 77 0 0.0 0.0 0.00 0.14 0.00 86 1017.7
20170817045117 78 0 0.0 0.0 0.00 0.14 0.00 86 1017.7
20170817044617 78 0 0.0 0.0 0.00 0.14 0.00 86 1017.7
20170817044119 78 0 0.0 0.0 0.00 0.14 0.00 86 1017.8
20170817043624 78 0 0.0 0.0 0.00 0.14 0.00 85 1017.9
20170817043118 78 0 0.0 0.0 0.00 0.14 0.00 85 1017.9
20170817042618 78 0 0.0 0.0 0.00 0.14 0.00 85 1018.0
20170817042118 78 0 0.0 0.0 0.00 0.14 0.00 84 1018.0
20170817041618 79 0 0.0 0.0 0.00 0.14 0.00 84 1018.0
20170817041119 79 0 0.0 0.0 0.00 0.14 0.00 84 1018.0
20170817040618 79 0 0.0 0.0 0.00 0.14 0.00 83 1018.0
20170817040118 79 0 0.0 0.0 0.00 0.14 0.00 83 1018.1
20170817035618 79 0 0.0 0.0 0.00 0.14 0.00 82 1018.2
20170817035119 79 0 0.0 0.0 0.00 0.14 0.00 82 1018.2
20170817034617 79 0 0.0 0.0 0.00 0.14 0.00 82 1018.3
20170817034118 79 0 0.0 0.0 0.00 0.14 0.00 82 1018.3
20170817033618 79 0 0.0 0.0 0.00 0.14 0.00 82 1018.5
20170817033118 79 0 0.0 0.0 0.00 0.14 0.00 81 1018.5
20170817032618 79 0 0.0 0.0 0.00 0.14 0.00 81 1018.6
20170817032118 80 0 0.0 0.0 0.00 0.14 0.00 81 1018.6
20170817031623 80 0 0.0 0.0 0.00 0.14 0.00 80 1018.6
20170817031124 80 0 0.0 0.0 0.00 0.14 0.00 80 1018.6
20170817030618 80 0 0.0 0.0 0.00 0.14 0.00 79 1018.7
20170817030118 80 0 0.0 0.0 0.00 0.14 0.00 79 1018.8
20170817025618 80 0 0.0 0.0 0.00 0.14 0.00 79 1019.0
20170817025118 81 0 0.0 0.0 0.00 0.14 0.00 78 1019.1
20170817024620 80 0 0.0 0.0 0.00 0.14 0.00 77 1019.1
20170817024117 80 0 0.0 0.0 0.00 0.14 0.00 77 1019.3
20170817023617 81 0 0.0 0.0 0.00 0.14 0.00 78 1019.0
20170817023117 80 217 0.0 1.0 0.00 0.14 0.00 78 1019.0
20170817022617 81 198 0.0 4.0 0.00 0.14 0.00 78 1019.0
20170817022117 80 205 2.0 2.0 0.00 0.14 0.00 79 1019.0
20170817021617 80 0 0.0 0.0 0.00 0.14 0.00 81 1018.9
20170817021117 80 199 0.0 1.0 0.00 0.14 0.00 82 1018.8
20170817020617 80 193 1.0 3.0 0.00 0.14 0.00 83 1018.7
20170817020118 79 0 0.0 0.0 0.00 0.14 0.00 83 1018.6
20170817015617 80 0 0.0 0.0 0.00 0.14 0.00 83 1018.5
20170817015118 80 0 0.0 0.0 0.00 0.14 0.00 82 1018.4
20170817014617 80 0 0.0 0.0 0.00 0.14 0.00 82 1018.3
20170817014117 80 0 0.0 0.0 0.00 0.14 0.00 82 1018.3
20170817013617 80 0 0.0 0.0 0.00 0.14 0.00 82 1018.2
20170817013117 80 0 0.0 0.0 0.00 0.14 0.00 81 1018.2
20170817012617 80 0 0.0 0.0 0.00 0.14 0.00 81 1018.1
20170817012117 80 0 0.0 0.0 0.00 0.14 0.00 81 1018.0
20170817011622 80 0 0.0 0.0 0.00 0.14 0.00 80 1017.9
20170817011117 80 0 0.0 0.0 0.00 0.14 0.00 80 1017.9
20170817010617 81 0 0.0 0.0 0.00 0.14 0.00 79 1017.8
20170817010117 81 0 0.0 0.0 0.00 0.14 0.00 79 1017.7
20170817005617 81 0 0.0 0.0 0.00 0.14 0.00 78 1017.6
20170817005117 81 0 0.0 0.0 0.00 0.14 0.00 77 1017.5
20170817004617 82 0 0.0 0.0 0.00 0.14 0.00 77 1017.4
20170817004116 82 0 0.0 0.0 0.00 0.14 0.00 76 1017.3
20170817003617 82 0 0.0 0.0 0.00 0.14 0.00 75 1017.2
20170817003117 82 0 0.0 0.0 0.00 0.14 0.00 74 1017.2
20170817002617 83 0 0.0 0.0 0.00 0.14 0.00 73 1017.1
20170817002117 83 0 0.0 0.0 0.00 0.14 0.00 73 1017.1
20170817001618 84 0 0.0 0.0 0.00 0.14 0.00 71 1017.0
20170817001117 84 0 0.0 0.0 0.00 0.14 0.00 71 1017.0
20170817000617 84 0 0.0 0.0 0.00 0.14 0.00 70 1017.0
20170817000117 84 0 0.0 0.0 0.00 0.14 0.00 68 1017.0
20170816235617 85 199 0.0 4.0 0.00 0.14 0.00 68 1016.9
20170816235117 85 0 1.0 0.0 0.00 0.14 0.00 67 1017.0
20170816234617 85 0 0.0 0.0 0.00 0.14 0.00 67 1017.0
20170816234117 85 148 0.0 0.0 0.00 0.14 0.00 67 1017.1
20170816233617 85 172 0.0 1.0 0.00 0.14 0.00 66 1017.2
20170816233117 85 193 0.0 2.0 0.00 0.14 0.00 65 1017.1
20170816232617 85 209 0.0 3.0 0.00 0.14 0.00 65 1017.1